Flag for French Polynesia Weather past 2 weeks in Gambier Islands, French Polynesia

Now
76 °F

Mild.


Feels Like: 77 °F
Forecast: 76 / 81 °F
Wind: 6 mph from Southeast

Location: Rikitea

Current Time: Apr 27, 2015 at 6:10:33 PM

Latest Report: Apr 27, 2015 at 5:00 PM


Visibility: N/A

Pressure: 30.03 "Hg

Humidity: 72%

Dew point: 66 °F

Location of Gambier IslandsLocation

Historic Weather in Gambier Islands — Graph

°F

Gambier Islands temperature yesterday

Maximum temperature yesterday: 78 °F (at 10:00 AM)
Minimum temperature yesterday: 74 °F (at 3:00 AM)
Average temperature yesterday: 75 °F

Past Weeks' High & Low Weather Summary

 TemperatureHumidityPressure
High83 °F (Apr 13, 11:00 AM)100% (Apr 13, 5:00 PM)30.14 "Hg (Apr 13, 5:00 PM)
Low69 °F (Apr 18, 5:00 AM)49% (Apr 22, 12:00 PM)29.85 "Hg (Apr 15, 4:00 PM)
Average74 °F70%30.00 "Hg
* Reported Apr 12 4:00 PM — Apr 27 4:00 PM, Gambier Islands, Weather by CustomWeather, © 2015

Note: Actual official high and low records may vary slightly from our data, if they occured in-between our weather recording intervals... More about our weather records

Advertising

Gambier Islands weather history for previous 24 hours

 ConditionsComfort  
Time TempWeatherWind HumidityBarometerVisibility
4:00 PM
Mon, Apr 27
77 °FMild.7 mph71%30.02 "HgN/A
3:00 PM79 °FScattered clouds.3 mph65%30.02 "Hg25 mi
2:00 PM80 °FScattered clouds.3 mph63%30.02 "Hg25 mi
1:00 PM81 °FWarm.6 mph62%30.04 "HgN/A
11:00 AM78 °FScattered clouds.13 mph70%30.09 "Hg19 mi
10:00 AM78 °FWarm.14 mph69%30.11 "HgN/A
9:00 AM77 °FScattered clouds.13 mph73%30.11 "Hg19 mi
8:00 AM76 °FMild.14 mph70%30.10 "HgN/A
7:00 AM75 °FScattered clouds.14 mph73%30.09 "Hg19 mi
6:00 AM74 °FScattered clouds.14 mph72%30.07 "Hg19 mi
5:00 AM74 °FMild.14 mph71%30.05 "HgN/A
4:00 AM74 °FMild.12 mph72%30.05 "HgN/A
3:00 AM74 °FMild.10 mph72%30.05 "HgN/A
2:00 AM74 °FMild.10 mph71%30.05 "HgN/A
1:00 AM74 °FMild.10 mph69%30.06 "HgN/A
12:00 AM74 °FMild.9 mph72%30.07 "HgN/A
11:00 PM
Sun, Apr 26
74 °FMild.8 mph74%30.08 "HgN/A
10:00 PM74 °FMild.3 mph69%30.09 "HgN/A
9:00 PM74 °FMild.13 mph69%30.10 "HgN/A
8:00 PM74 °FMild.10 mph66%30.09 "HgN/A
7:00 PM74 °FMild.10 mph69%30.07 "HgN/A
6:00 PM75 °FMild.12 mph73%30.06 "HgN/A
Weather by CustomWeather, © 2015

See weather overviewHow to use our weather pages